User: anonymous   Login
Location: Unspecified
(0.0000°N, 0.0000°E)
Time: 07:54:08
(UTC+02:00)
Language:

Hamsat - Orbit

View from above orbital plane
View from above orbital plane
View from above satellite
View from above satellite

Ground track
Ground track

The orbit data is extracted from the following two-line orbital elements,

1 28650U 05017B   17228.11040761  .00000219  00000-0  29120-4 0  9994
2 28650  97.6562 200.4351 0022068 294.1170  65.7739 14.88709059665088
Epoch (UTC): 16 August 2017 02:38:59
Eccentricity: 0.0022068
inclination: 97.6562°
perigee height: 586 km
apogee height: 617 km
right ascension of ascending node: 200.4351°
argument of perigee: 294.1170°
revolutions per day: 14.88709059
mean anomaly at epoch: 65.7739°
orbit number at epoch: 66508

The dashed part of the orbit path shows where the satellite is in the earth's shadow,  

DLR